Wind_Speed
4 5 5 6 7 6 6 6 5 5 4 4 3 3 3 3 3 4 5 6 6 5 5 6 6 7 7 7 7 8 8 8 7 7 7 7 7 7 6 6 7 7 6 7 6 5 5 5 4
5 4 5 7 7 6 6 5 5 4 4 4 4 4 4 4 4 5 6 6 6 5 5 6 7 7 8 8 9 9 9 8 8 8 8 8 8 7 7 7 7 7 7 7 7 6 6 5 5
6 5 5 6 7 7 6 5 5 4 4 5 4 4 4 4 5 5 6 6 6 6 6 7 7 8 8 10 10 10 10 9 9 9 9 9 9 9 8 7 7 7 7 7 7 7 6 5 5
7 6 6 7 7 7 7 6 5 4 5 5 5 5 5 5 5 5 6 6 6 7 7 8 8 8 9 10 10 10 11 10 9 10 10 10 10 9 9 8 8 8 8 8 7 7 7 6 6
8 8 8 7 8 7 7 7 6 5 5 5 5 5 5 5 6 6 6 6 7 7 8 8 8 8 9 10 10 10 10 10 9 9 9 9 10 10 10 9 9 8 8 8 8 8 8 8 8
8 8 8 7 8 8 8 7 6 6 5 5 5 6 6 6 6 6 6 7 7 7 8 8 8 8 8 8 9 9 8 8 8 8 9 9 10 11 11 11 10 9 9 8 8 8 9 9 9
6 7 8 8 8 8 7 7 7 6 7 6 6 7 7 7 7 7 7 7 7 7 8 7 7 7 7 7 8 9 9 9 9 9 8 9 9 10 11 11 11 10 9 8 8 9 9 9 9
7 8 8 8 7 8 7 7 7 7 7 8 7 7 8 7 7 7 7 7 7 7 8 8 7 7 8 8 9 9 10 10 10 9 10 10 10 10 10 11 11 10 9 9 9 9 9 10 10
8 8 8 8 7 7 7 7 8 8 8 8 8 8 8 7 7 7 7 7 7 7 8 8 8 8 8 8 8 9 10 10 10 10 11 11 11 10 10 10 10 10 10 10 10 10 10 10 11
8 8 8 9 8 8 8 8 8 8 8 8 9 8 8 8 7 8 8 8 8 8 8 8 9 9 8 9 9 9 10 11 11 11 11 11 12 11 11 10 11 11 11 11 11 11 11 11 11
7 8 8 8 8 8 9 9 8 8 8 9 9 9 8 8 8 8 9 9 9 9 9 9 9 10 9 10 10 10 10 11 11 12 12 11 11 11 12 12 12 12 12 11 11 12 12 12 13
8 8 7 7 7 7 8 8 8 8 8 9 10 10 9 9 9 9 9 9 9 9 9 9 9 10 9 10 10 10 10 10 10 11 11 12 12 12 12 12 13 12 12 12 12 12 13 13 14
8 7 7 8 8 8 8 8 8 8 8 9 10 10 10 10 10 10 10 10 10 10 10 10 10 10 10 10 10 10 10 9 10 10 10 11 11 12 12 13 13 13 13 13 13 13 14 14 13
7 7 7 8 8 8 8 9 9 8 9 10 10 9 9 10 10 10 11 11 10 10 10 10 10 9 9 9 10 10 10 9 10 10 11 12 12 12 12 12 13 14 13 13 13 14 14 14 14
7 7 7 8 9 9 9 9 9 9 9 10 9 9 9 10 11 11 10 10 10 10 10 10 10 10 10 10 9 10 10 11 11 11 12 11 11 12 12 12 13 13 14 14 14 14 15 15 15
8 8 7 8 9 9 9 8 8 9 9 9 9 9 10 10 10 11 11 10 10 10 10 10 10 10 10 10 10 10 10 11 11 11 11 11 11 11 11 11 12 13 14 14 14 14 14 14 14
7 7 8 8 9 9 9 9 9 9 9 9 9 9 10 10 10 10 11 10 10 10 11 11 10 11 11 11 10 10 11 11 11 11 11 11 11 11 11 11 12 13 13 13 13 14 14 14 14
7 8 8 9 9 9 10 9 9 9 10 10 10 10 10 10 10 10 10 11 10 11 11 11 11 11 11 11 11 11 10 10 10 10 11 11 11 11 11 12 12 13 12 12 13 14 14 14 15
7 8 8 9 9 10 9 9 10 10 10 10 10 11 10 10 10 11 11 11 11 11 11 10 11 11 11 11 11 11 11 10 10 11 11 11 11 12 12 13 13 12 13 13 14 14 15 15 16
8 9 9 9 9 10 10 10 9 9 10 10 10 11 10 10 10 10 10 11 12 12 12 11 11 12 12 12 12 12 12 12 12 12 13 13 13 13 13 13 13 14 14 14 15 15 16 16 16
9 9 10 10 9 10 10 10 9 9 10 10 10 10 10 10 11 11 11 11 12 12 13 12 12 12 12 13 13 13 13 12 12 13 14 14 14 14 14 14 14 15 15 16 16 16 16 16 17
10 10 11 11 10 10 10 11 9 10 11 10 10 10 10 10 11 12 12 12 12 12 13 13 13 13 14 14 14 14 14 14 14 14 14 15 15 15 14 14 15 16 16 16 16 16 17 18 18
11 11 12 12 11 11 11 12 9 10 10 10 10 10 10 11 11 12 13 13 13 13 13 14 15 15 15 15 15 15 15 15 16 15 15 15 15 15 15 16 16 17 17 17 18 18 19 19 19
12 12 12 12 13 13 12 13 11 10 11 11 10 11 11 12 12 13 13 14 14 14 14 15 15 15 15 15 15 15 15 15 16 16 16 16 16 16 17 17 18 18 18 18 19 19 20 20 20
13 13 13 14 14 13 12 13 11 10 11 12 12 12 12 13 13 13 14 15 15 15 15 16 16 16 16 16 16 16 16 16 17 17 17 17 17 17 18 18 19 18 19 19 20 20 20 20 20
14 15 15 15 15 13 12 14 12 11 12 12 12 13 14 14 15 15 16 16 16 16 17 17 17 18 18 18 18 17 17 18 18 18 18 18 18 18 19 19 20 20 20 20 20 20 21 22 22
15 15 15 17 17 16 16 15 14 14 13 13 13 14 15 15 16 16 16 16 16 17 18 18 18 18 18 18 19 19 18 18 19 19 19 20 19 19 20 20 20 21 21 21 21 21 21 22 23
16 16 16 17 18 18 18 17 15 15 15 15 14 14 15 15 16 17 17 17 17 18 18 18 19 19 19 19 20 20 20 19 19 20 21 21 21 20 21 21 22 22 22 22 23 23 23 23 24
16 17 18 18 18 19 20 18 16 16 15 15 14 14 15 16 17 17 17 17 18 19 19 19 19 20 20 21 21 21 21 21 22 22 22 22 23 23 23 23 23 23 23 24 24 24 25 25 25
17 17 18 19 20 20 21 19 16 17 16 16 16 16 17 17 17 17 17 18 19 19 20 20 20 21 21 22 22 22 22 23 23 23 23 23 23 24 24 25 25 25 25 25 25 26 26 26 26
Wind_Direction
226 230 226 212 203 198 209 217 216 215 216 220 220 221 226 238 239 232 240 244 244 245 255 262 258 256 260 261 261 260 259 262 264 258 254 253 256 251 245 246 248 250 254 261 266 273 271 268 249
221 220 219 208 202 206 214 221 219 214 210 218 219 221 227 239 240 239 250 251 247 248 259 263 264 263 259 258 258 260 259 261 261 257 256 256 255 255 253 248 248 255 258 260 266 267 270 267 256
228 225 219 216 212 214 215 216 218 213 213 216 221 224 233 248 249 251 254 258 258 254 260 262 264 267 265 260 256 255 256 257 257 255 255 255 252 252 253 252 250 253 256 260 262 261 264 263 262
236 227 228 221 222 223 217 217 219 221 223 226 230 232 239 253 256 256 259 261 264 264 263 265 268 270 269 264 255 251 250 251 252 254 255 256 254 249 250 251 254 256 258 260 259 260 260 258 259
244 236 235 232 231 231 230 230 228 230 237 241 246 247 249 254 259 259 263 268 268 266 265 268 271 272 272 265 254 250 247 247 248 254 256 255 255 254 254 254 256 258 259 260 259 261 260 259 259
238 233 235 238 237 235 237 238 239 242 249 252 256 260 259 255 259 258 262 268 268 270 271 270 268 271 270 265 250 244 244 246 248 254 257 255 255 254 256 261 261 260 258 259 261 262 264 264 264
244 239 236 238 241 239 238 242 242 246 253 258 261 260 258 256 262 262 263 269 271 272 272 273 273 273 269 257 245 245 247 251 255 257 259 258 258 256 256 260 259 258 257 260 263 266 269 268 268
250 246 244 245 245 246 243 244 248 250 258 262 262 260 261 261 262 261 263 267 272 273 273 268 273 278 273 259 252 253 250 253 257 259 258 258 257 255 257 256 257 258 259 261 266 268 269 271 272
252 251 247 246 248 250 251 253 257 257 259 263 265 263 264 265 264 264 266 268 271 273 273 268 269 270 269 264 260 258 257 258 258 260 260 262 260 257 256 256 259 261 263 265 267 268 270 272 275
252 253 248 246 246 249 253 256 260 258 257 260 262 265 266 268 267 265 267 267 266 270 272 273 270 266 266 262 262 262 260 260 261 260 260 262 263 261 257 257 259 263 266 267 266 266 269 274 278
249 245 246 248 249 251 256 257 259 257 256 258 260 263 264 267 270 266 266 269 269 268 269 270 270 269 268 266 268 269 265 267 266 264 261 261 263 263 260 259 261 261 263 266 268 270 273 276 279
253 247 242 245 249 249 254 260 266 266 261 259 263 264 263 265 268 269 268 268 271 269 266 266 269 269 269 268 268 271 269 268 268 265 264 264 265 265 264 265 267 265 264 265 267 270 272 275 278
258 256 249 246 250 254 257 262 267 272 269 268 268 267 266 266 268 269 269 268 269 268 267 270 269 270 269 269 272 273 271 270 270 272 272 271 271 269 268 267 267 266 266 266 267 271 273 276 279
257 253 247 250 254 257 261 265 268 269 271 273 275 270 268 265 264 266 266 268 267 264 266 269 271 272 272 272 272 274 273 272 271 270 269 271 273 273 271 267 265 265 265 267 269 272 275 277 278
252 249 246 251 256 260 264 266 268 267 271 272 272 271 270 267 267 267 268 269 266 264 266 269 272 273 273 273 272 271 273 272 272 272 270 273 274 275 271 268 267 267 267 268 270 273 276 277 278
254 254 255 257 260 261 265 268 270 271 269 267 269 271 271 272 267 268 269 270 268 267 268 269 271 271 269 270 272 274 275 277 278 277 276 275 276 276 274 271 270 269 269 270 272 273 273 275 278
259 263 265 264 263 264 265 268 270 273 271 270 272 273 271 270 270 271 270 271 272 270 271 270 271 268 267 269 270 273 277 281 281 281 281 279 278 276 273 271 270 270 270 270 272 274 272 274 277
266 265 267 269 268 267 265 266 267 270 273 273 272 272 271 269 268 268 270 272 272 272 273 271 269 266 266 265 268 270 274 279 281 285 286 279 277 278 277 273 272 272 271 271 273 275 275 275 277
270 269 273 274 274 273 272 271 268 268 269 270 270 272 270 269 267 267 265 268 269 270 272 272 269 268 269 268 269 270 274 278 283 284 284 283 280 275 275 273 271 273 273 274 274 275 276 277 278
274 275 275 275 276 277 277 276 274 271 268 269 271 271 270 267 266 265 265 267 267 270 274 273 271 272 272 272 274 272 275 278 281 282 283 283 281 277 275 273 271 272 274 276 276 277 277 277 278
270 274 276 275 276 275 276 277 279 275 273 273 274 272 269 267 266 268 266 269 270 273 275 274 273 273 274 274 277 276 276 277 279 281 282 283 281 280 277 274 273 273 272 274 274 275 276 277 278
269 269 271 273 273 272 275 279 280 276 275 274 276 273 271 269 270 271 270 270 273 275 274 272 272 271 273 273 275 273 273 275 275 277 280 281 281 281 279 276 275 273 272 271 271 273 275 277 278
273 270 270 273 273 273 275 279 280 280 276 271 273 276 277 273 270 272 273 273 273 273 271 271 273 271 271 272 275 275 273 272 272 273 277 279 281 281 280 280 280 279 277 275 274 273 274 275 277
271 270 271 272 273 273 275 279 276 277 278 278 276 277 279 277 273 272 271 271 273 273 272 272 271 270 270 269 273 273 271 270 271 273 274 276 279 279 280 281 281 282 282 280 279 278 278 278 279
264 267 268 271 272 274 274 274 276 276 274 273 272 273 276 279 276 272 271 271 273 274 273 274 272 271 268 267 270 270 270 269 270 272 274 277 278 278 279 280 282 282 281 280 281 281 280 279 280
265 266 267 270 273 275 271 273 278 276 273 272 272 273 276 277 275 274 273 272 273 273 272 273 273 273 271 268 267 269 270 271 271 272 275 277 277 276 277 279 280 281 281 280 280 280 279 278 280
264 265 269 270 273 275 272 274 276 276 276 278 277 277 276 277 274 274 274 272 272 273 272 271 273 274 273 270 269 270 270 272 271 271 274 276 276 277 279 281 281 282 281 279 280 280 280 281 282
261 263 263 266 270 272 273 275 279 281 281 278 276 276 276 277 274 273 274 273 271 272 271 271 272 272 273 272 271 270 269 268 269 273 276 276 277 278 280 283 283 282 281 280 280 280 280 280 281
259 259 262 264 268 272 274 275 276 277 277 276 278 278 278 278 274 273 273 271 271 272 272 272 273 273 273 273 274 273 272 270 270 272 274 276 277 277 279 282 283 281 280 279 279 280 280 280 279
260 260 263 265 268 271 273 274 272 272 272 274 276 278 280 281 279 277 274 271 271 271 271 271 271 271 272 273 273 273 273 274 274 274 275 277 278 278 279 281 281 280 280 280 280 281 281 281 280
Height
5862 5861 5861 5861 5863 5864 5864 5865 5865 5866 5867 5867 5867 5868 5869 5870 5871 5874 5871 5870 5870 5870 5871 5871 5871 5871 5871 5871 5871 5871 5871 5871 5871 5871 5871 5872 5872 5872 5871 5871 5871 5871 5870 5870 5870 5869 5867 5865 5863
5862 5862 5862 5862 5862 5863 5864 5864 5865 5866 5866 5866 5867 5868 5868 5868 5869 5869 5869 5868 5869 5869 5869 5869 5869 5869 5869 5869 5869 5869 5870 5870 5870 5870 5870 5870 5870 5870 5870 5870 5870 5870 5869 5869 5869 5868 5867 5866 5864
5861 5862 5863 5862 5862 5863 5864 5864 5864 5865 5866 5866 5866 5867 5867 5867 5868 5868 5868 5867 5867 5867 5868 5868 5868 5868 5867 5867 5867 5867 5868 5868 5868 5868 5868 5869 5869 5869 5869 5869 5869 5868 5868 5868 5868 5867 5867 5866 5865
5861 5862 5863 5862 5862 5863 5863 5863 5863 5864 5865 5865 5865 5866 5866 5867 5867 5866 5866 5866 5865 5866 5866 5866 5866 5865 5865 5865 5865 5865 5866 5866 5866 5867 5867 5867 5867 5867 5868 5868 5867 5867 5867 5867 5866 5866 5866 5865 5865
5860 5861 5861 5861 5861 5862 5862 5862 5863 5863 5864 5864 5865 5865 5865 5865 5865 5865 5865 5865 5864 5864 5864 5864 5864 5863 5862 5861 5861 5863 5863 5864 5865 5865 5865 5866 5866 5866 5866 5866 5866 5866 5866 5866 5865 5865 5865 5864 5864
5859 5859 5860 5860 5860 5860 5861 5861 5862 5862 5863 5863 5863 5863 5863 5864 5864 5863 5863 5863 5863 5863 5862 5862 5862 5861 5859 5858 5858 5860 5862 5863 5863 5863 5864 5864 5864 5864 5864 5864 5864 5864 5864 5864 5864 5863 5863 5863 5862
5858 5858 5858 5859 5859 5859 5860 5860 5860 5861 5861 5862 5862 5862 5861 5862 5862 5862 5862 5861 5861 5861 5861 5860 5860 5860 5858 5857 5858 5859 5860 5861 5861 5862 5862 5862 5862 5862 5862 5862 5862 5862 5862 5862 5862 5862 5861 5861 5861
5856 5857 5856 5857 5858 5858 5858 5859 5859 5859 5859 5860 5860 5860 5860 5860 5860 5860 5860 5860 5859 5859 5859 5859 5858 5858 5858 5857 5857 5858 5858 5859 5860 5860 5860 5860 5860 5860 5860 5860 5860 5860 5860 5860 5860 5860 5859 5859 5859
5854 5855 5854 5855 5856 5856 5856 5857 5857 5857 5857 5858 5858 5858 5858 5858 5858 5858 5858 5858 5858 5858 5857 5857 5857 5857 5857 5857 5857 5857 5857 5857 5858 5858 5858 5858 5858 5858 5858 5858 5858 5858 5858 5858 5858 5858 5857 5857 5857
5852 5853 5853 5854 5854 5854 5854 5855 5855 5855 5855 5855 5856 5856 5856 5856 5856 5856 5856 5856 5856 5856 5856 5855 5855 5855 5855 5855 5855 5855 5855 5856 5855 5855 5855 5856 5855 5855 5855 5856 5856 5856 5856 5855 5855 5855 5855 5855 5854
5850 5851 5851 5851 5851 5852 5852 5852 5852 5853 5853 5853 5854 5854 5854 5854 5854 5854 5854 5854 5854 5854 5854 5854 5853 5853 5854 5853 5853 5853 5853 5853 5853 5853 5853 5853 5853 5853 5853 5853 5853 5853 5853 5853 5852 5852 5852 5852 5852
5848 5848 5849 5849 5849 5849 5850 5850 5850 5850 5851 5851 5851 5851 5852 5852 5852 5852 5852 5852 5852 5852 5852 5852 5851 5851 5851 5851 5851 5851 5851 5851 5850 5850 5850 5850 5850 5850 5850 5850 5850 5850 5850 5850 5850 5850 5849 5849 5849
5845 5846 5846 5846 5847 5847 5847 5848 5848 5848 5848 5848 5848 5849 5849 5850 5849 5849 5849 5850 5850 5850 5850 5849 5849 5849 5849 5849 5849 5849 5848 5848 5848 5848 5847 5847 5847 5847 5847 5847 5847 5847 5847 5847 5847 5847 5846 5846 5846
5844 5844 5844 5844 5844 5844 5845 5845 5846 5846 5845 5846 5846 5846 5846 5847 5847 5847 5847 5847 5847 5847 5847 5847 5847 5847 5847 5846 5846 5846 5846 5846 5845 5845 5845 5844 5844 5844 5844 5844 5844 5844 5844 5844 5844 5843 5843 5843 5842
5841 5842 5842 5841 5841 5842 5842 5843 5843 5843 5843 5843 5843 5843 5844 5844 5844 5844 5844 5844 5844 5844 5845 5844 5844 5844 5844 5844 5844 5843 5843 5843 5842 5842 5841 5841 5840 5840 5840 5840 5840 5840 5840 5840 5840 5840 5840 5839 5839
5839 5839 5840 5839 5839 5839 5841 5841 5841 5840 5840 5840 5841 5841 5841 5841 5841 5841 5841 5841 5841 5841 5842 5842 5842 5842 5841 5841 5841 5841 5840 5840 5839 5839 5838 5838 5837 5837 5836 5836 5836 5837 5837 5837 5837 5836 5836 5836 5835
5837 5837 5837 5838 5837 5837 5837 5837 5838 5837 5837 5838 5838 5838 5838 5838 5838 5838 5838 5838 5839 5839 5839 5839 5839 5838 5838 5838 5838 5838 5837 5837 5837 5836 5835 5835 5834 5833 5833 5833 5833 5833 5833 5833 5833 5833 5833 5832 5832
5836 5835 5835 5835 5835 5834 5834 5834 5834 5834 5834 5834 5835 5835 5835 5835 5835 5835 5835 5835 5835 5835 5836 5836 5835 5835 5835 5835 5835 5835 5835 5834 5834 5833 5833 5832 5831 5831 5830 5830 5830 5830 5830 5829 5829 5829 5829 5829 5828
5833 5832 5832 5832 5832 5831 5831 5831 5831 5831 5831 5831 5831 5832 5832 5832 5832 5832 5832 5832 5832 5832 5832 5832 5832 5832 5832 5832 5832 5832 5831 5831 5831 5830 5830 5829 5828 5828 5827 5827 5826 5826 5826 5826 5826 5825 5825 5825 5824
5830 5829 5829 5829 5828 5828 5828 5828 5828 5828 5828 5828 5828 5828 5828 5828 5829 5829 5828 5829 5829 5829 5828 5828 5829 5828 5829 5829 5829 5829 5828 5828 5827 5827 5827 5826 5825 5824 5824 5823 5823 5822 5822 5822 5822 5821 5821 5821 5820
5827 5827 5826 5826 5825 5825 5825 5825 5825 5825 5824 5824 5824 5824 5824 5825 5825 5825 5825 5825 5825 5825 5825 5825 5825 5825 5825 5825 5825 5825 5825 5825 5824 5823 5823 5822 5821 5821 5820 5819 5819 5819 5818 5818 5818 5817 5817 5816 5816
5824 5824 5824 5823 5822 5822 5822 5821 5822 5821 5821 5821 5821 5821 5821 5821 5821 5821 5821 5821 5821 5821 5821 5821 5821 5821 5822 5822 5821 5821 5821 5821 5820 5820 5819 5819 5818 5817 5816 5816 5815 5815 5814 5814 5813 5813 5812 5812 5811
5821 5820 5820 5820 5819 5819 5818 5817 5819 5817 5817 5817 5817 5817 5817 5817 5817 5817 5817 5817 5817 5817 5817 5817 5817 5818 5818 5818 5817 5817 5817 5816 5816 5816 5815 5815 5814 5813 5812 5812 5811 5810 5810 5809 5809 5808 5808 5807 5806
5817 5817 5817 5816 5815 5815 5815 5814 5815 5814 5813 5813 5813 5813 5813 5813 5813 5813 5813 5813 5813 5813 5813 5813 5813 5813 5813 5813 5813 5813 5812 5812 5812 5811 5811 5810 5809 5808 5808 5807 5806 5806 5805 5804 5804 5803 5803 5802 5801
5813 5814 5813 5812 5811 5811 5811 5809 5811 5810 5810 5809 5809 5809 5809 5809 5808 5808 5808 5808 5808 5808 5808 5808 5809 5809 5809 5809 5808 5808 5808 5808 5807 5807 5806 5805 5804 5804 5803 5802 5801 5801 5800 5799 5799 5798 5797 5796 5796
5809 5809 5810 5809 5807 5807 5806 5805 5807 5806 5805 5805 5805 5805 5804 5804 5804 5804 5804 5804 5804 5803 5803 5803 5803 5803 5803 5803 5803 5803 5803 5803 5802 5802 5801 5800 5799 5799 5798 5797 5796 5795 5794 5794 5793 5792 5791 5790 5789
5804 5804 5805 5804 5803 5802 5802 5802 5803 5802 5801 5801 5800 5800 5800 5799 5799 5799 5799 5799 5799 5798 5798 5798 5798 5798 5798 5798 5798 5798 5798 5797 5797 5796 5796 5795 5794 5793 5792 5791 5790 5789 5788 5787 5787 5786 5785 5784 5783
5800 5800 5800 5799 5798 5797 5797 5797 5798 5797 5797 5796 5796 5795 5795 5795 5794 5794 5794 5794 5794 5794 5793 5793 5793 5793 5793 5792 5792 5792 5792 5791 5791 5790 5790 5789 5788 5787 5786 5785 5784 5783 5782 5781 5780 5779 5778 5777 5776
5796 5796 5795 5794 5794 5793 5792 5795 5794 5793 5792 5791 5791 5791 5790 5790 5789 5789 5788 5788 5788 5788 5788 5787 5787 5787 5787 5786 5786 5786 5785 5785 5785 5784 5783 5782 5781 5781 5780 5779 5777 5776 5775 5774 5773 5772 5771 5770 5769
5790 5790 5790 5790 5789 5788 5787 5791 5789 5787 5787 5786 5786 5786 5785 5785 5784 5783 5783 5783 5782 5782 5782 5782 5781 5781 5781 5780 5780 5779 5779 5778 5778 5777 5776 5775 5774 5773 5772 5771 5770 5769 5768 5766 5765 5764 5763 5762 5761